• In Deutschland
  • Länderverzeichnis
  • Für 7 Tage
  • Wassertemperatur
  • Satellitenkarten
  • Wetterkarte
  • Widgets
  • user-avatar
    Anmelden

    Stündliche Wetter Herāt

    Heute, 18 Januar, Donnerstag

    Zeit Temperatur Niederschläge Wind Luftdruck Luftfeuchtigkeit
    00:00 +5°C° 0 mm 2 m/S 678 mmHg 28%
    01:00 +5°C° 0 mm 2 m/S 678 mmHg 27%
    02:00 +5°C° 0 mm 2 m/S 678 mmHg 26%
    03:00 +5°C° 0 mm 2 m/S 678 mmHg 26%
    04:00 +4°C° 0 mm 2 m/S 678 mmHg 27%
    05:00 +4°C° 0 mm 2 m/S 678 mmHg 27%
    06:00 +4°C° 0 mm 2 m/S 678 mmHg 27%
    07:00 +4°C° 0 mm 2 m/S 678 mmHg 26%
    08:00 +5°C° 0 mm 3 m/S 678 mmHg 23%
    09:00 +9°C° 0 mm 3 m/S 679 mmHg 19%
    10:00 +11°C° 0 mm 3 m/S 679 mmHg 15%
    11:00 +12°C° 0 mm 4 m/S 679 mmHg 14%
    12:00 +14°C° 0 mm 5 m/S 678 mmHg 13%
    13:00 +15°C° 0 mm 6 m/S 678 mmHg 12%
    14:00 +15°C° 0 mm 6 m/S 678 mmHg 12%
    15:00 +14°C° 0 mm 6 m/S 677 mmHg 13%
    16:00 +14°C° 0 mm 6 m/S 677 mmHg 14%
    17:00 +13°C° 0 mm 5 m/S 677 mmHg 16%
    18:00 +11°C° 0 mm 3 m/S 677 mmHg 18%
    19:00 +9°C° 0 mm 2 m/S 677 mmHg 21%
    20:00 +9°C° 0 mm 2 m/S 677 mmHg 21%
    21:00 +8°C° 0 mm 2 m/S 677 mmHg 22%
    22:00 +7°C° 0 mm 2 m/S 677 mmHg 23%
    23:00 +7°C° 0 mm 2 m/S 677 mmHg 22%

    Morgen, 19 Januar, Freitag

    Zeit Temperatur Niederschläge Wind Luftdruck Luftfeuchtigkeit
    00:00 +7°C° 0 mm 2 m/S 677 mmHg 22%
    01:00 +7°C° 0 mm 3 m/S 677 mmHg 21%
    02:00 +7°C° 0 mm 3 m/S 677 mmHg 21%
    03:00 +7°C° 0 mm 3 m/S 677 mmHg 21%
    04:00 +5°C° 0 mm 3 m/S 677 mmHg 21%
    05:00 +5°C° 0 mm 3 m/S 678 mmHg 21%
    06:00 +5°C° 0 mm 3 m/S 678 mmHg 21%
    07:00 +5°C° 0 mm 3 m/S 678 mmHg 21%
    08:00 +7°C° 0 mm 4 m/S 679 mmHg 19%
    09:00 +11°C° 0 mm 4 m/S 680 mmHg 17%
    10:00 +13°C° 0 mm 4 m/S 681 mmHg 14%
    11:00 +14°C° 0 mm 5 m/S 681 mmHg 13%
    12:00 +15°C° 0 mm 5 m/S 680 mmHg 13%
    13:00 +16°C° 0 mm 6 m/S 680 mmHg 12%
    14:00 +16°C° 0 mm 5 m/S 680 mmHg 12%
    15:00 +16°C° 0 mm 5 m/S 680 mmHg 12%
    16:00 +16°C° 0 mm 5 m/S 680 mmHg 12%
    17:00 +14°C° 0 mm 4 m/S 680 mmHg 14%
    18:00 +13°C° 0 mm 4 m/S 680 mmHg 15%
    19:00 +11°C° 0 mm 3 m/S 680 mmHg 17%
    20:00 +11°C° 0 mm 3 m/S 680 mmHg 17%
    21:00 +10°C° 0 mm 3 m/S 680 mmHg 18%
    22:00 +10°C° 0 mm 3 m/S 680 mmHg 18%
    23:00 +9°C° 0 mm 3 m/S 680 mmHg 18%

    übermorgen, 20 Januar, Samstag

    Zeit Temperatur Niederschläge Wind Luftdruck Luftfeuchtigkeit
    00:00 +9°C° 0 mm 3 m/S 680 mmHg 19%
    01:00 +9°C° 0 mm 3 m/S 679 mmHg 19%
    02:00 +9°C° 0 mm 3 m/S 679 mmHg 19%
    03:00 +8°C° 0 mm 3 m/S 679 mmHg 19%
    04:00 +8°C° 0 mm 3 m/S 679 mmHg 20%
    05:00 +8°C° 0 mm 3 m/S 679 mmHg 19%
    06:00 +8°C° 0 mm 3 m/S 679 mmHg 19%
    07:00 +8°C° 0 mm 3 m/S 679 mmHg 19%
    08:00 +10°C° 0 mm 4 m/S 679 mmHg 17%
    09:00 +13°C° 0 mm 4 m/S 680 mmHg 14%
    10:00 +15°C° 0 mm 5 m/S 681 mmHg 12%
    11:00 +16°C° 0 mm 5 m/S 680 mmHg 12%
    12:00 +17°C° 0 mm 6 m/S 680 mmHg 11%
    13:00 +18°C° 0 mm 7 m/S 679 mmHg 11%
    14:00 +19°C° 0 mm 6 m/S 679 mmHg 12%
    15:00 +19°C° 0 mm 6 m/S 678 mmHg 12%
    16:00 +17°C° 0 mm 6 m/S 678 mmHg 13%
    17:00 +16°C° 0 mm 5 m/S 678 mmHg 16%
    18:00 +14°C° 0 mm 4 m/S 678 mmHg 19%
    19:00 +12°C° 0 mm 3 m/S 677 mmHg 22%
    20:00 +11°C° 0 mm 3 m/S 677 mmHg 23%
    21:00 +11°C° 0 mm 3 m/S 677 mmHg 24%
    22:00 +10°C° 0 mm 2 m/S 677 mmHg 25%
    23:00 +10°C° 0 mm 2 m/S 677 mmHg 25%

    21 Januar, Sonntag

    Zeit Temperatur Niederschläge Wind Luftdruck Luftfeuchtigkeit
    00:00 +9°C° 0 mm 2 m/S 677 mmHg 25%
    01:00 +9°C° 0 mm 2 m/S 677 mmHg 25%
    02:00 +9°C° 0 mm 2 m/S 677 mmHg 25%
    03:00 +9°C° 0 mm 2 m/S 677 mmHg 24%
    04:00 +9°C° 0 mm 3 m/S 677 mmHg 23%
    05:00 +8°C° 0 mm 3 m/S 677 mmHg 24%
    06:00 +8°C° 0 mm 3 m/S 677 mmHg 25%
    07:00 +6°C° 0 mm 4 m/S 677 mmHg 26%
    08:00 +8°C° 0 mm 4 m/S 678 mmHg 25%
    09:00 +10°C° 0 mm 4 m/S 678 mmHg 23%
    10:00 +12°C° 0 mm 4 m/S 679 mmHg 21%
    11:00 +13°C° 0 mm 4 m/S 679 mmHg 21%
    12:00 +13°C° 0 mm 4 m/S 678 mmHg 20%
    13:00 +14°C° 0 mm 5 m/S 678 mmHg 20%
    14:00 +14°C° 0 mm 5 m/S 677 mmHg 22%
    15:00 +13°C° 0 mm 6 m/S 677 mmHg 25%
    16:00 +11°C° 0 mm 7 m/S 677 mmHg 28%
    17:00 +10°C° 0 mm 7 m/S 677 mmHg 34%
    18:00 +8°C° 0 mm 7 m/S 677 mmHg 41%
    19:00 +6°C° 0 mm 7 m/S 678 mmHg 47%
    20:00 +5°C° 0 mm 7 m/S 678 mmHg 51%
    21:00 +5°C° 0 mm 7 m/S 678 mmHg 55%
    22:00 +4°C° 0 mm 7 m/S 678 mmHg 58%
    23:00 +4°C° 0 mm 7 m/S 678 mmHg 59%

    22 Januar, Montag

    Zeit Temperatur Niederschläge Wind Luftdruck Luftfeuchtigkeit
    00:00 +4°C° 0 mm 7 m/S 678 mmHg 60%
    01:00 +3°C° 0 mm 6 m/S 677 mmHg 61%
    02:00 +3°C° 0 mm 6 m/S 677 mmHg 62%
    03:00 +3°C° 0 mm 6 m/S 677 mmHg 62%
    04:00 +3°C° 0 mm 6 m/S 677 mmHg 63%
    05:00 +2°C° 0 mm 6 m/S 678 mmHg 64%
    06:00 +2°C° 0 mm 6 m/S 678 mmHg 65%
    07:00 +2°C° 0 mm 6 m/S 678 mmHg 66%
    08:00 +3°C° 0 mm 6 m/S 679 mmHg 59%
    09:00 +4°C° 0 mm 6 m/S 679 mmHg 52%
    10:00 +5°C° 0 mm 7 m/S 679 mmHg 46%
    11:00 +7°C° 0 mm 6 m/S 679 mmHg 41%
    12:00 +9°C° 0 mm 6 m/S 679 mmHg 36%
    13:00 +10°C° 0 mm 6 m/S 678 mmHg 32%
    14:00 +10°C° 0 mm 6 m/S 678 mmHg 33%
    15:00 +9°C° 0 mm 6 m/S 678 mmHg 34%
    16:00 +9°C° 0 mm 7 m/S 678 mmHg 35%
    17:00 +8°C° 0 mm 6 m/S 678 mmHg 39%
    18:00 +7°C° 0 mm 5 m/S 679 mmHg 44%
    19:00 +6°C° 0 mm 4 m/S 679 mmHg 48%
    20:00 +5°C° 0 mm 3 m/S 679 mmHg 50%
    21:00 +5°C° 0 mm 3 m/S 679 mmHg 51%
    22:00 +5°C° 0 mm 2 m/S 679 mmHg 53%
    23:00 +5°C° 0 mm 2 m/S 678 mmHg 53%

    23 Januar, Dienstag

    Zeit Temperatur Niederschläge Wind Luftdruck Luftfeuchtigkeit
    00:00 +6°C° 0 mm 1 m/S 678 mmHg 54%
    01:00 +5°C° 0 mm 1 m/S 677 mmHg 54%
    02:00 +5°C° 0 mm 1 m/S 677 mmHg 56%
    03:00 +4°C° 0 mm 1 m/S 677 mmHg 57%
    04:00 +3°C° 0 mm 0 m/S 676 mmHg 59%
    05:00 +3°C° 0 mm 0 m/S 676 mmHg 59%
    06:00 +3°C° 0 mm 0 m/S 677 mmHg 59%
    07:00 +2°C° 0 mm 0 m/S 677 mmHg 59%
    08:00 +6°C° 0 mm 1 m/S 677 mmHg 49%
    09:00 +9°C° 0 mm 1 m/S 678 mmHg 38%
    10:00 +12°C° 0 mm 1 m/S 678 mmHg 28%
    11:00 +13°C° 0 mm 2 m/S 678 mmHg 24%
    12:00 +15°C° 0 mm 2 m/S 678 mmHg 21%
    13:00 +16°C° 0 mm 3 m/S 677 mmHg 17%
    14:00 +16°C° 0 mm 3 m/S 677 mmHg 17%
    15:00 +16°C° 0 mm 3 m/S 677 mmHg 17%
    16:00 +16°C° 0 mm 3 m/S 677 mmHg 17%
    17:00 +14°C° 0 mm 3 m/S 676 mmHg 20%
    18:00 +13°C° 0 mm 2 m/S 676 mmHg 23%
    19:00 +12°C° 0 mm 2 m/S 676 mmHg 26%
    20:00 +10°C° 0 mm 2 m/S 676 mmHg 27%
    21:00 +10°C° 0 mm 2 m/S 676 mmHg 28%
    22:00 +10°C° 0 mm 3 m/S 676 mmHg 29%
    23:00 +9°C° 0 mm 3 m/S 676 mmHg 30%
    Mehr zeigen